Overview Statistics Trail Chart Weather Telemetry Raw packets
 

This is the latest recevied weather packets stored in our database for station/object IZ7EXI-13. If no packets are shown the sender has not sent any weather packets the latest 10 day(s).

<< 33 34 35 36 37 38 39 >>
Time Temp. Humidity Pressure Rain* Wind** Luminosity Snow
1788033900 32.22° C 27% 1015.8 hPa - - - -
1788033000 32.22° C 28% 1015.7 hPa - - - -
1788032100 32.22° C 29% 1015.7 hPa - - - -
1788031199 32.78° C 29% 1015.6 hPa - - - -
1788030299 32.78° C 28% 1015.5 hPa - - - -
1788029399 33.33° C 28% 1015.4 hPa - - - -
1788028499 33.89° C 26% 1015.4 hPa - - - -
1788027598 33.89° C 26% 1015.3 hPa - - - -
1788026697 35° C 25% 1015.1 hPa - - - -
1788025797 35° C 24% 1014.9 hPa - - - -
1788024897 35° C 31% 1014.9 hPa - - - -
1788023997 35° C 36% 1014.9 hPa - - - -
1788023096 35.56° C 29% 1014.8 hPa - - - -
1788022227 36.11° C 31% 1015.1 hPa - - - -
1788022196 36.11° C 31% 1015.1 hPa - - - -
1788021332 36.11° C 26% 1015.1 hPa - - - -
1788021296 36.11° C 26% 1015.1 hPa - - - -
1788020426 36.67° C 30% 1015 hPa - - - -
1788020396 36.67° C 30% 1015 hPa - - - -
1788019529 38.89° C 15% 1014.6 hPa - - - -
1788019495 38.89° C 15% 1014.6 hPa - - - -
1788018619 38.33° C 15% 1014.2 hPa - - - -
1788018595 38.33° C 15% 1014.2 hPa - - - -
1788017695 38.89° C 14% 1014.5 hPa - - - -
1788016825 39.44° C 14% 1014.6 hPa - - - -

* Rain since midnight (hover to see other rain measurements)
** Current wind speed in m/s (hover to see current wind gust speed)